Home   Weather   Venice   Past weeks

Flag for Italy Past Weather in Venice, Italy — Yesterday and Last 2 Weeks

Now
59 °F

Rain. Broken clouds.


Feels Like: 56 °F
Forecast: 57 / 62 °F
Wind: 17 mph from Southeast

Location: Venice / Tessera

Current Time: Apr 26, 2017 at 2:17:50 pm

Latest Report: Apr 26, 2017 at 1:20 pm


Visibility: 6 mi

Pressure: 29.77 "Hg

Humidity: 88%

Dew Point: 55 °F

Location of VeniceLocation

Past Weather in Venice — Graph

°F

Venice Temperature Yesterday

Maximum temperature yesterday: 64 °F (at 3:20 pm)
Minimum temperature yesterday: 54 °F (at 12:20 am)
Average temperature yesterday: 58 °F

High & Low Weather Summary for the Past Weeks

 TemperatureHumidityPressure
High64 °F (Apr 25, 3:20 pm)94% (Apr 26, 1:50 am)30.42 "Hg (Apr 26, 1:50 am)
Low41 °F (Apr 22, 6:20 am)13% (Apr 19, 4:50 pm)29.77 "Hg (Apr 26, 6:20 am)
Average55 °F58%30.10 "Hg
* Reported Apr 19 9:20 am — Apr 26 12:20 pm, Venice, Weather by CustomWeather, © 2017

Note: Actual official high and low records may vary slightly from our data, if they occured in-between our weather recording intervals... More about our weather records

Advertising

Venice Weather History for the Previous 24 Hours

Scroll right to see more
 ConditionsComfort  
Time TempWeatherWind HumidityBarometerVisibility
12:20 pm
Wed, Apr 26
59 °FBroken clouds.17 mph88%29.80 "HgN/A
11:50 am59 °FRain. Broken clouds.15 mph77%29.80 "HgN/A
11:20 am59 °FRain. Broken clouds.16 mph77%29.80 "HgN/A
10:50 am59 °FLight rain. Broken clouds.13 mph77%29.80 "HgN/A
10:20 am59 °FLight rain. Broken clouds.10 mph77%29.80 "HgN/A
9:50 am59 °FRain. Broken clouds.13 mph77%29.80 "HgN/A
9:20 am59 °FRain. Broken clouds.16 mph72%29.80 "HgN/A
8:20 am63 °FScattered clouds.10 mph59%29.80 "HgN/A
7:50 am61 °FScattered clouds.7 mph68%29.80 "HgN/A
7:20 am59 °FScattered clouds.8 mph72%29.80 "HgN/A
6:50 am59 °FScattered clouds.9 mph77%29.80 "HgN/A
6:20 am59 °FScattered clouds.7 mph68%29.77 "HgN/A
5:50 am59 °FPassing clouds.7 mph72%29.80 "HgN/A
5:20 am59 °FClear.7 mph68%29.80 "Hg10 mi
4:50 am59 °FClear.7 mph68%29.80 "Hg10 mi
4:20 am57 °FClear.7 mph82%29.83 "Hg10 mi
3:50 am54 °FClear.1 mph94%29.83 "Hg10 mi
3:20 am55 °FClear.2 mph94%29.83 "Hg10 mi
2:50 am54 °FClear.5 mph94%29.83 "Hg10 mi
2:20 am55 °FClear.5 mph88%29.83 "Hg10 mi
1:50 am54 °FClear.6 mph94%29.83 "Hg10 mi
1:20 am55 °FPassing clouds.7 mph88%29.83 "HgN/A
12:50 am57 °FClear.2 mph88%29.83 "Hg10 mi
12:20 am59 °FPassing clouds.3 mph88%29.83 "HgN/A
11:50 pm
Tue, Apr 25
59 °FPassing clouds.6 mph82%29.83 "HgN/A
11:20 pm61 °FPassing clouds.14 mph83%29.83 "HgN/A
10:50 pm59 °FClear.15 mph82%29.83 "Hg10 mi
10:20 pm59 °FPassing clouds.16 mph82%29.83 "HgN/A
9:50 pm61 °FClear.16 mph77%29.83 "Hg10 mi
8:50 pm61 °FPassing clouds.15 mph72%29.83 "HgN/A
7:50 pm61 °FScattered clouds.14 mph77%29.83 "HgN/A
7:20 pm61 °FBroken clouds.14 mph77%29.86 "HgN/A
6:50 pm61 °FPartly sunny.14 mph77%29.86 "HgN/A
6:20 pm61 °FPartly sunny.13 mph72%29.86 "HgN/A
5:50 pm61 °FPartly sunny.14 mph68%29.86 "HgN/A
5:20 pm63 °FPartly sunny.14 mph73%29.86 "HgN/A
4:50 pm64 °FScattered clouds.13 mph64%29.89 "HgN/A
4:20 pm64 °FSunny.12 mph64%29.89 "Hg10 mi
3:50 pm64 °FSunny.12 mph68%29.89 "Hg10 mi
3:20 pm64 °FScattered clouds.12 mph68%29.92 "HgN/A
2:50 pm63 °FScattered clouds.8 mph73%29.92 "HgN/A
2:20 pm63 °FScattered clouds.8 mph73%29.92 "HgN/A
Weather by CustomWeather, © 2017

See weather overviewHow to use our weather pages